Vorticity
nan nan nan nan nan nan nan nan nan nan nan nan nan nan nan nan nan nan nan nan nan nan nan nan nan nan nan nan nan nan nan nan nan nan nan nan nan nan nan nan nan nan nan nan nan nan nan nan nan nan nan nan nan nan nan nan nan nan nan nan nan nan nan nan nan nan nan nan nan
nan 12 13 13 12 11 10 10 8 6 6 8 11 12 13 13 13 12 11 10 12 12 11 9 10 12 12 11 9 9 8 8 7 7 6 7 8 9 9 9 9 8 8 8 7 7 8 9 10 9 9 8 8 9 9 9 9 9 9 8 10 10 11 12 11 11 12 13 nan
nan 10 8 7 5 2 0 1 0 -1 -1 2 5 8 11 13 14 14 13 12 12 10 8 8 10 11 10 9 8 9 10 9 7 6 6 7 8 8 8 9 9 9 8 7 7 7 8 8 9 9 9 9 9 9 9 8 9 10 10 11 11 11 11 11 11 13 13 13 nan
nan 9 8 8 6 4 2 4 5 5 5 8 11 12 12 13 14 14 13 13 12 10 9 10 10 10 10 8 8 9 10 9 8 7 6 7 8 8 8 9 9 9 9 9 8 8 8 9 10 9 10 9 9 9 9 9 9 10 11 12 11 10 11 10 11 12 12 11 nan
nan 10 10 13 12 9 9 13 16 16 17 18 19 18 15 12 12 11 11 11 12 12 13 13 11 10 9 9 9 8 8 8 7 7 7 8 8 8 9 9 9 9 9 10 9 9 9 11 11 10 10 10 10 10 9 9 10 11 11 10 10 10 10 10 10 10 10 10 nan
nan 13 13 16 17 13 14 18 20 17 17 17 17 14 12 12 14 13 13 11 11 12 13 11 9 9 9 9 9 7 6 6 7 8 9 8 8 8 9 9 10 10 9 9 9 9 10 11 11 10 10 10 10 9 9 10 11 11 10 9 9 10 10 9 10 10 9 9 nan
nan 14 14 15 16 13 14 15 16 14 12 13 14 11 10 12 14 15 13 11 10 9 9 9 9 9 9 9 8 7 6 6 7 8 9 8 8 9 9 9 10 10 9 9 9 9 10 10 9 9 9 10 9 8 9 10 11 11 10 9 9 9 9 10 10 10 9 9 nan
nan 14 13 13 13 13 12 10 8 8 8 11 13 11 10 10 11 10 9 8 8 8 8 9 10 10 10 9 8 7 7 6 7 7 8 9 8 9 9 9 9 9 9 9 9 9 9 9 9 9 9 9 8 8 8 10 11 10 10 10 10 9 9 10 10 10 10 12 nan
nan 11 11 12 12 11 10 8 7 7 9 11 12 11 10 9 8 7 6 6 7 8 9 10 10 10 10 9 8 8 8 7 7 7 8 8 8 8 8 9 9 8 8 8 9 9 9 9 10 10 10 9 8 7 8 10 11 10 10 10 9 9 9 9 9 10 11 12 nan
nan 9 10 10 10 10 10 9 8 9 9 10 10 9 9 8 6 5 6 7 8 8 9 9 9 9 8 8 8 8 9 9 9 8 8 8 9 8 9 9 9 8 8 8 9 9 9 9 10 10 10 9 8 8 8 10 11 10 10 9 8 8 9 9 9 10 11 11 nan
nan 8 9 10 10 9 9 8 8 8 8 9 8 8 7 6 6 6 7 8 8 8 8 8 9 8 7 7 8 9 9 10 10 10 9 9 9 9 9 9 9 9 9 10 10 9 9 9 9 9 9 8 8 9 9 10 10 10 10 8 8 8 9 9 9 10 10 9 nan
nan 9 9 11 11 10 9 8 8 9 10 9 8 6 6 7 8 8 8 8 8 6 6 8 9 8 7 7 8 9 9 10 11 11 10 9 9 9 9 10 10 10 10 11 11 11 11 10 9 7 7 7 8 9 9 9 9 9 9 8 8 8 8 8 9 10 9 9 nan
nan 10 10 11 12 11 9 8 8 9 10 9 7 6 7 9 9 8 8 8 6 5 6 8 8 9 8 8 8 9 10 11 11 11 10 10 9 9 9 9 10 10 11 11 11 12 12 11 9 8 6 7 8 8 9 9 8 8 7 7 8 8 7 8 9 9 10 10 nan
nan 11 10 11 11 10 9 8 8 9 10 9 7 8 8 9 9 8 9 8 7 6 7 8 8 9 10 10 10 10 11 11 12 11 10 9 9 9 9 9 10 10 10 10 11 12 12 11 9 9 8 7 8 8 9 8 7 7 6 7 8 8 8 8 8 9 10 10 nan
nan 10 9 9 9 9 8 8 8 9 9 8 7 8 9 9 9 9 10 10 8 7 8 8 7 8 10 11 11 11 12 12 11 10 9 8 9 9 9 9 10 10 10 11 10 10 10 10 10 10 10 8 8 9 9 9 8 8 8 8 9 9 8 8 9 9 9 8 nan
nan 8 8 8 8 8 7 7 8 9 9 8 8 8 8 9 9 10 11 10 8 8 9 8 8 8 9 10 11 12 12 12 11 10 8 7 8 8 9 9 9 9 10 10 10 9 9 10 11 12 12 10 9 10 10 10 9 9 9 9 9 9 8 9 10 10 10 9 nan
nan 8 8 8 8 8 7 7 8 10 11 10 8 8 8 9 10 10 10 9 8 8 8 7 8 8 9 9 10 11 12 11 10 10 9 8 8 8 8 9 9 8 8 8 8 8 9 10 11 12 11 10 10 10 10 10 10 10 10 9 9 9 9 10 11 11 11 10 nan
nan 8 8 8 9 8 8 8 9 10 11 9 8 8 9 10 10 10 9 8 9 9 8 7 8 9 9 9 10 11 12 12 11 10 10 9 9 9 8 7 7 8 8 8 8 8 7 8 9 9 9 9 8 9 9 9 9 10 10 10 9 9 9 10 11 11 12 12 nan
nan 8 8 8 9 8 9 8 8 9 9 9 8 9 9 10 10 9 8 8 10 11 9 8 8 9 10 10 10 11 11 12 12 10 9 9 10 9 8 7 7 8 8 8 8 7 7 7 7 7 7 7 7 7 7 8 8 9 9 10 10 10 10 10 10 11 12 13 nan
nan 8 8 8 9 9 8 8 8 8 9 10 10 9 8 8 9 9 8 9 10 11 11 9 8 9 9 10 10 10 10 12 13 10 9 9 9 9 8 7 7 7 8 8 8 8 7 7 6 6 5 5 5 6 6 7 7 7 8 9 9 9 9 9 10 11 11 12 nan
nan 8 8 8 9 9 8 8 10 10 11 10 9 8 7 7 8 9 9 10 10 11 11 11 10 10 9 10 9 9 9 11 12 10 8 8 9 8 7 7 7 7 7 8 8 7 7 6 5 4 3 4 5 6 7 7 8 8 8 8 8 9 9 9 10 10 11 11 nan
nan 9 9 10 10 10 9 10 11 11 10 9 8 7 7 7 7 8 9 10 10 10 10 11 12 11 11 10 9 9 8 10 10 9 8 8 8 8 8 7 7 7 7 7 7 7 6 5 5 4 4 6 7 8 9 9 10 10 9 8 8 8 8 9 9 10 10 11 nan
nan 10 10 11 11 11 11 11 12 11 9 8 8 7 7 7 7 9 9 10 10 11 11 12 13 13 12 11 9 9 8 9 9 9 8 9 9 9 8 7 8 7 7 7 6 6 5 6 7 7 7 8 9 10 11 11 11 11 11 9 8 7 7 8 9 9 10 10 nan
nan 9 10 11 12 12 11 11 10 9 8 7 7 7 7 7 8 9 10 10 10 11 11 11 13 13 12 11 10 10 9 8 8 8 8 8 9 8 7 7 7 7 7 7 5 2 0 1 4 7 9 10 10 11 11 12 12 12 12 10 8 7 6 7 8 9 10 10 nan
nan 9 10 11 11 11 11 10 9 8 7 7 7 7 7 7 8 9 9 9 9 10 10 11 11 11 10 10 10 10 10 9 8 8 7 7 7 7 7 7 7 8 8 8 4 -2 -6 -7 -4 1 6 10 11 11 12 13 13 13 13 11 9 6 5 6 7 8 9 9 nan
nan 10 10 10 10 10 10 9 8 8 7 8 8 7 7 8 9 9 9 8 8 9 9 9 9 9 9 8 9 9 9 9 9 8 7 6 6 6 6 7 8 8 8 6 3 -2 -4 -5 -4 -1 4 10 11 12 12 14 16 15 14 12 10 8 7 6 6 7 7 7 nan
nan 10 9 10 10 10 9 8 8 9 9 10 9 7 8 9 11 10 9 8 8 8 8 8 9 9 8 8 9 8 7 8 8 9 9 8 7 6 6 6 7 7 7 5 3 1 1 3 6 7 9 10 13 14 13 14 15 15 14 12 11 11 10 8 7 6 6 6 nan
nan 9 9 10 9 9 8 9 10 10 10 9 8 7 9 11 11 9 8 8 8 7 7 7 8 8 8 10 10 9 8 8 8 8 9 9 8 7 6 6 7 6 5 4 4 4 6 9 12 13 12 10 15 16 15 13 12 12 12 12 12 12 12 10 8 8 7 7 nan
nan 9 10 8 7 7 8 10 10 9 9 8 9 10 11 11 10 8 7 8 7 6 6 7 8 9 11 11 10 10 9 9 9 9 9 9 8 7 7 6 7 7 6 5 5 7 8 11 13 13 12 11 14 16 16 13 11 11 10 11 12 12 11 10 9 9 8 8 nan
nan 10 10 8 7 7 8 9 9 9 8 9 11 11 10 9 8 7 8 7 6 5 7 9 10 10 10 10 10 9 9 9 10 11 10 9 7 6 7 7 7 7 7 6 6 8 9 10 11 12 11 12 14 15 15 13 12 11 10 11 11 11 11 10 9 8 8 8 nan
nan 10 9 8 8 8 8 9 9 10 10 11 11 10 8 7 7 6 6 6 7 8 9 10 10 10 8 8 9 9 8 8 9 10 10 9 7 7 7 8 8 8 7 6 6 8 9 10 11 11 10 13 17 17 16 13 12 11 11 12 12 11 10 9 9 9 9 9 nan
nan 10 10 9 8 8 8 10 11 11 11 11 10 8 7 7 6 7 7 8 9 10 9 8 8 7 6 7 7 7 7 7 7 8 8 8 7 8 8 9 10 9 6 6 7 9 10 11 12 12 10 15 22 21 16 12 11 11 12 13 13 12 10 10 10 10 10 9 nan
nan 11 10 9 8 8 10 11 11 11 11 10 8 7 7 6 7 8 8 8 9 9 9 8 7 6 6 6 7 7 6 6 7 7 8 9 8 7 7 9 11 9 6 7 8 9 10 12 12 11 12 21 25 21 14 11 11 11 12 13 13 13 12 11 11 11 10 9 nan
nan 11 10 9 9 9 10 11 11 10 10 9 8 8 7 8 9 8 7 7 7 9 10 10 8 8 8 8 8 8 8 7 8 8 8 8 7 7 6 7 8 7 6 7 8 10 11 12 12 14 20 29 23 17 12 10 10 12 12 12 11 12 12 11 11 11 10 10 nan
nan 10 10 10 10 10 10 10 10 10 9 8 7 7 6 9 10 8 8 7 6 7 9 10 10 9 9 9 10 10 9 9 8 8 6 6 7 8 8 8 7 6 6 7 8 10 12 13 17 25 30 28 17 12 10 10 10 11 11 10 9 9 9 9 9 9 10 11 nan
nan 10 10 10 10 11 11 10 9 9 9 8 7 7 5 6 10 11 12 9 7 7 8 9 9 9 9 9 11 12 11 10 9 8 7 6 7 9 9 8 7 8 8 9 10 13 18 24 31 32 27 14 9 9 10 9 10 11 11 9 7 7 7 8 8 9 9 10 nan
nan 11 10 10 10 10 10 10 10 9 8 8 8 8 7 6 8 11 12 9 7 9 8 8 9 10 9 8 9 10 11 11 10 10 9 8 8 9 9 8 8 9 10 11 15 22 29 35 33 24 12 4 7 9 9 9 10 11 10 8 7 7 8 8 9 9 9 10 nan
nan 11 10 10 9 9 9 10 10 9 8 8 8 9 9 8 9 11 12 8 8 10 9 8 9 10 10 10 9 9 9 9 9 10 10 10 9 8 8 8 8 9 11 14 22 28 32 29 20 11 3 4 8 8 8 9 10 10 9 7 7 7 8 9 11 11 11 12 nan
nan 11 10 10 9 9 9 9 9 8 7 7 8 9 8 8 9 11 11 8 8 11 11 9 10 11 12 10 8 9 9 9 10 10 9 10 9 8 7 8 8 9 12 17 24 25 21 14 9 5 2 4 7 8 8 10 10 10 9 8 7 6 6 8 10 12 12 16 nan
nan 11 10 9 9 9 8 8 8 8 7 9 10 9 8 7 8 10 10 9 9 10 11 11 11 11 12 10 8 8 9 9 10 10 10 9 10 10 7 8 9 10 13 19 21 16 10 6 4 3 -0 2 7 8 9 10 10 9 8 8 8 7 6 7 9 11 12 15 nan
nan nan nan nan nan nan nan nan nan nan nan nan nan nan nan nan nan nan nan nan nan nan nan nan nan nan nan nan nan nan nan nan nan nan nan nan nan nan nan nan nan nan nan nan nan nan nan nan nan nan nan nan nan nan nan nan nan nan nan nan nan nan nan nan nan nan nan nan nan
CAPE
nan nan nan nan nan nan nan nan nan nan nan nan nan nan nan nan nan nan nan nan nan nan nan nan nan nan nan nan nan nan nan nan nan 0 0 nan nan nan nan 0 0 nan nan nan 2 2 1 0 nan nan 1 2 3 2 2 0 nan nan nan 0 2 4 4 4 5 5 4 2 2
nan nan nan nan nan nan nan nan nan nan nan nan nan nan nan nan nan nan nan nan nan nan nan nan nan nan nan nan nan nan nan nan nan nan nan nan nan nan nan nan 0 0 0 0 0 0 1 0 0 0 0 0 0 0 0 nan nan nan nan nan 0 3 3 4 4 4 3 2 2
nan nan nan nan nan nan nan nan nan nan nan nan nan nan nan nan nan nan nan nan nan nan nan nan nan nan nan nan nan nan nan nan nan nan nan nan nan nan nan nan nan 0 0 0 0 0 0 0 0 0 0 nan 0 nan nan nan nan nan nan nan nan nan nan 0 0 0 0 1 1
nan nan nan nan nan nan nan nan nan nan nan nan nan nan nan nan nan nan nan nan nan nan nan nan nan nan nan nan nan nan nan nan nan nan nan nan nan nan nan nan nan nan nan nan nan nan nan nan nan nan nan nan nan nan nan nan nan nan nan nan nan nan nan nan nan nan nan 0 1
nan nan nan nan nan nan nan nan nan nan nan nan nan nan nan nan nan nan nan nan nan nan nan nan nan nan nan nan nan nan nan nan nan nan nan nan nan nan nan nan nan nan nan nan nan nan 0 0 0 0 nan nan nan nan nan nan nan nan nan nan nan nan nan nan nan nan nan 0 0
nan nan nan nan nan nan nan nan nan nan nan nan nan nan nan nan nan nan nan nan nan nan nan nan nan nan nan nan nan nan nan nan nan nan nan nan nan nan nan nan nan nan nan nan 0 0 0 0 0 0 nan nan nan nan nan nan nan nan nan nan nan nan nan nan nan nan nan nan 0
nan nan nan nan nan nan nan nan nan nan nan nan nan nan nan nan nan nan nan nan nan nan nan nan nan nan nan nan nan nan nan nan nan nan nan nan nan nan nan nan nan 0 0 0 0 0 0 0 0 0 0 nan nan nan nan nan nan nan nan nan nan nan nan nan nan nan nan nan nan
nan nan nan nan nan nan nan nan nan nan nan nan nan nan nan nan nan nan nan nan nan nan nan nan nan nan nan nan nan nan nan nan nan nan nan nan nan nan nan nan nan 0 0 0 0 0 0 0 0 0 0 0 0 nan nan nan nan nan nan nan nan nan nan nan nan nan 0 nan nan
nan nan nan nan nan nan nan nan nan nan nan nan nan nan nan nan nan nan nan nan nan nan nan nan nan nan nan nan nan nan nan nan nan nan nan nan nan nan nan nan nan nan nan 0 0 0 0 0 0 0 0 0 0 nan nan nan nan nan nan nan nan nan nan nan nan nan nan nan nan
nan nan nan nan nan nan nan nan nan nan nan nan nan nan nan nan nan nan nan nan nan nan nan nan nan nan nan nan nan nan nan nan nan nan nan nan nan nan nan nan nan nan nan nan nan nan nan 0 0 0 0 0 nan nan nan nan nan nan nan nan nan nan nan nan nan nan nan nan nan
nan nan nan nan nan nan nan nan nan nan nan nan nan nan nan nan nan nan nan nan nan nan nan nan nan nan nan nan nan nan nan nan nan nan nan nan nan nan nan nan nan nan nan nan nan nan 0 nan nan nan nan 0 nan nan nan nan nan nan nan nan nan nan nan nan nan nan nan nan nan
nan nan nan nan nan nan nan nan nan nan nan nan nan nan nan nan nan nan nan nan nan nan nan nan nan nan nan nan nan nan nan nan nan nan nan nan nan nan nan nan nan nan nan nan 0 0 0 nan nan nan nan nan nan nan nan nan nan nan nan nan nan nan nan nan nan nan nan nan nan
nan nan nan nan nan nan nan nan nan nan nan nan nan nan nan nan nan nan nan nan nan nan nan nan nan nan nan nan nan nan nan nan nan nan nan nan nan nan nan nan nan nan nan 0 0 0 nan nan nan nan nan nan nan nan nan nan nan nan nan nan nan nan nan nan nan nan nan nan nan
nan nan nan nan nan nan nan nan nan nan nan nan nan nan nan nan nan nan nan nan nan nan nan nan nan nan nan nan nan nan nan nan nan nan nan nan nan nan nan nan nan nan nan nan nan nan nan nan nan nan nan nan nan nan nan nan nan nan nan nan nan nan nan nan nan nan nan nan nan
nan nan nan nan nan nan nan nan nan nan nan nan nan nan nan nan nan nan nan nan nan nan nan nan nan nan nan nan nan nan nan nan nan nan nan nan nan nan nan nan nan nan nan 0 nan nan nan nan nan nan nan nan nan nan nan nan nan nan nan nan nan nan nan nan nan nan nan nan nan
nan nan nan nan nan nan nan nan nan nan nan nan nan nan nan nan nan nan nan nan nan nan nan nan nan nan nan nan nan nan nan nan nan nan nan nan nan nan nan nan nan 0 0 0 nan nan nan nan nan nan nan nan nan nan nan nan nan nan nan nan nan nan nan nan nan nan nan nan nan
nan nan nan nan nan nan nan nan nan nan nan nan nan nan nan nan nan nan nan nan nan nan nan nan nan nan nan nan nan nan nan nan nan nan nan nan nan nan nan nan nan nan nan nan nan nan nan nan nan nan nan nan nan nan nan nan nan nan nan nan nan nan nan nan nan nan nan nan nan
nan nan nan nan nan nan nan nan nan nan nan nan nan nan nan nan nan nan nan nan nan nan nan nan nan nan nan nan nan nan nan nan nan nan nan nan nan nan nan nan nan nan nan nan nan nan nan nan nan nan nan nan nan nan nan nan nan nan nan nan nan nan nan nan nan nan nan nan nan
nan nan nan nan nan nan nan nan nan nan nan nan nan nan nan nan nan nan nan nan nan nan nan nan nan nan nan nan nan nan nan nan nan nan nan nan nan nan nan nan nan nan nan nan nan nan nan nan nan nan nan nan nan nan nan nan nan nan nan nan nan nan nan nan nan nan nan nan nan
nan nan nan nan nan nan nan nan nan nan nan nan nan nan nan nan nan nan nan nan nan nan nan nan nan nan nan nan nan nan nan nan nan nan nan nan nan nan nan nan nan nan nan nan nan nan nan nan nan nan nan nan nan nan nan nan nan nan nan nan nan nan nan nan nan nan nan nan nan
nan nan nan nan nan nan nan nan nan nan nan nan nan nan nan nan nan nan nan nan nan nan nan nan nan nan nan nan nan nan nan nan nan nan nan nan nan nan nan nan nan nan nan nan nan nan nan nan nan nan nan nan nan nan nan nan nan nan nan nan nan nan nan nan nan nan nan nan nan
nan nan nan nan nan nan nan nan nan nan nan nan nan nan nan nan nan nan nan nan nan nan nan nan nan nan nan nan nan nan nan nan nan nan nan nan nan nan nan nan nan nan nan nan nan nan nan nan nan nan nan nan nan nan nan nan nan nan nan nan nan nan nan nan nan nan nan nan nan
nan nan nan nan nan nan nan nan nan nan nan nan nan nan nan nan nan nan nan nan nan nan nan nan nan nan nan nan nan nan nan nan nan nan nan nan nan nan nan nan nan nan nan nan nan nan nan nan nan nan nan nan nan nan nan nan nan nan nan nan nan nan nan nan nan nan nan nan nan
nan nan nan nan nan nan nan nan nan nan nan nan nan nan nan nan nan nan nan nan nan nan nan nan nan nan nan nan nan nan nan nan nan nan nan nan nan nan nan nan nan nan nan nan nan nan nan nan nan nan nan nan nan nan nan nan nan nan nan nan nan nan nan nan nan nan nan nan nan
nan nan nan nan nan nan nan nan nan nan nan nan nan nan nan nan nan nan nan nan nan nan nan nan nan nan nan nan nan nan nan nan nan nan nan nan nan nan nan nan nan nan nan nan nan nan nan nan nan nan nan nan nan nan nan nan nan nan nan nan nan nan nan nan nan nan nan nan nan
nan nan nan nan nan nan nan nan nan nan nan nan nan nan nan nan nan nan nan nan nan nan nan nan nan nan nan nan nan nan nan nan nan nan nan nan nan nan nan nan nan nan nan nan nan nan nan 6 10 10 3 nan 0 0 0 0 nan nan nan nan nan nan nan nan nan nan nan nan nan
nan nan nan nan nan nan nan nan nan nan nan nan nan nan nan nan nan nan nan nan nan nan nan nan nan nan nan nan nan nan nan nan nan nan nan nan nan nan nan nan nan nan nan nan 1 1 1 10 15 15 11 2 0 nan nan nan nan nan nan nan nan nan nan nan nan nan nan nan nan
nan nan nan nan nan nan nan nan nan nan nan nan nan nan nan nan nan nan nan nan nan nan nan nan nan nan nan nan nan nan nan nan nan nan nan nan nan nan nan nan nan nan nan 0 2 2 4 11 15 15 17 11 0 0 0 nan nan nan nan nan nan nan nan nan nan nan nan nan nan
nan nan nan nan nan nan nan nan nan nan nan nan nan nan nan nan nan nan nan nan nan nan nan nan nan nan nan nan nan nan nan nan nan nan nan nan nan nan nan nan nan nan nan 1 4 4 4 9 14 14 20 17 0 nan nan nan nan nan nan nan nan nan nan nan nan nan nan nan nan
nan nan nan nan nan nan nan nan nan nan nan nan nan nan nan nan nan nan nan nan nan nan nan nan nan nan nan nan nan nan nan nan nan nan nan nan nan nan nan nan nan nan nan 1 5 5 5 10 18 18 20 18 nan nan nan nan nan nan nan nan nan nan nan nan nan nan nan nan nan
nan nan nan nan nan nan nan nan nan nan nan nan nan nan nan nan nan nan nan nan nan nan nan nan nan nan nan nan nan nan nan nan nan nan nan nan nan nan nan nan nan nan nan 1 7 7 7 12 19 19 20 19 6 nan nan nan nan nan nan nan nan nan nan nan nan nan nan nan nan
nan nan nan nan nan nan nan nan nan nan nan nan nan nan nan nan nan nan nan nan nan nan nan nan nan nan nan nan nan nan nan nan nan 0 0 0 0 nan nan nan nan nan nan 1 9 9 11 15 19 19 19 20 8 nan nan nan nan nan nan nan nan nan nan nan nan nan nan nan nan
nan nan nan nan nan nan nan nan nan nan nan nan nan nan nan nan nan nan nan nan nan nan nan nan nan nan nan nan 0 0 nan nan nan 0 0 0 0 nan nan nan nan nan nan 2 12 12 12 15 17 17 16 22 nan nan nan nan nan nan nan nan nan nan nan nan nan nan nan nan nan
nan nan nan nan nan nan nan nan nan nan nan nan nan nan nan nan nan nan nan nan nan nan nan nan nan nan nan nan nan nan nan 0 0 nan nan 0 nan 0 0 1 nan 1 1 3 12 12 12 12 13 13 13 26 nan nan nan nan nan nan nan nan nan nan nan nan nan nan nan nan nan
nan nan nan nan nan nan nan nan nan nan nan nan nan nan nan nan nan nan nan nan nan nan nan nan nan nan nan nan nan nan 0 0 0 0 0 1 2 2 2 1 nan 1 1 3 11 11 9 11 12 12 20 0 nan nan nan nan nan nan nan nan nan nan nan nan nan nan nan nan nan
nan nan nan nan nan nan nan nan nan nan nan nan nan nan nan nan nan nan nan 0 nan nan nan nan nan nan nan 0 0 0 0 nan nan 0 0 1 1 1 1 nan nan 1 1 3 8 8 8 11 19 19 9 nan nan nan nan nan nan nan nan nan nan nan nan nan nan nan nan nan nan
nan nan nan nan nan nan nan nan nan nan nan nan nan nan nan nan nan nan nan nan nan nan nan nan nan 0 0 nan nan nan nan nan nan 0 0 1 1 0 0 nan nan nan nan 1 7 7 12 18 9 9 0 nan nan nan nan nan nan nan nan nan nan nan nan nan nan nan nan nan nan
nan nan nan nan nan nan nan nan nan nan nan nan nan nan nan nan nan nan nan nan nan nan nan nan nan nan nan nan nan nan nan nan nan nan nan nan nan nan nan nan nan nan nan 0 12 12 16 12 1 1 0 nan nan nan nan nan nan nan nan nan nan nan nan nan nan nan nan nan nan
nan nan nan nan nan nan nan nan nan nan nan nan nan nan nan nan nan nan nan nan nan nan nan nan nan nan nan nan nan nan nan nan nan nan nan nan nan nan nan nan nan nan nan 0 16 16 14 4 1 1 0 nan nan nan nan nan nan nan nan nan nan nan nan nan nan nan nan nan nan
nan nan nan nan nan nan nan nan nan nan nan nan nan nan nan nan nan nan nan nan nan nan nan nan nan nan nan nan nan nan nan nan nan nan nan nan nan nan nan nan nan nan nan 0 18 18 11 4 2 2 0 nan nan nan nan nan nan nan nan nan nan nan nan nan nan nan nan nan nan
nan nan nan nan nan nan nan nan nan nan nan nan nan nan nan nan nan nan nan nan nan nan nan nan nan nan nan nan nan nan nan nan nan nan nan nan nan 1 1 nan nan nan nan nan 19 19 13 9 3 3 0 nan nan nan nan nan nan nan nan nan nan nan nan nan nan nan nan nan nan